Simultaneous Nadir Overpasses (SNOs) Predictions

Prediction of SNOs over PacNW region [( 10.00, 139.50) to ( 22.70, 165.60)] between AQUA and NPP Satellites:

Table of predicted SNOs over PacNW region for the next 30.0 days since TLE Epoch: 1/4/2014
Index Date (AQUA) Time (AQUA) AQUA Lat,Lon Date (NPP) Time (NPP) NPP Lat,Lon Distance(km) Time Diff (sec)
1 01/08/2014 15:10:21 22.62, 159.79 01/08/2014 15:13:40 23.20, 157.21 271.59 199
2 01/11/2014 03:30:55 18.30, 148.50 01/11/2014 03:28:38 17.94, 146.86 176.97 137
3 01/19/2014 02:41:58 21.27, 160.26 01/19/2014 02:38:52 20.97, 158.82 153.08 186
4 01/24/2014 15:09:39 22.58, 159.98 01/24/2014 15:13:07 25.97, 157.94 429.10 208
5 01/27/2014 03:29:07 14.69, 149.53 01/27/2014 03:27:50 14.34, 147.74 196.62 77
